This demonstration page uses our WeatherBlox Daily Observations layout. Learn more.

38.89511, -77.03637

Hourly Observations for September 3, 2017

Temp ( °F °C ) Dew Point ( °F °C ) Humidity (%) Winds ( mph kmh ) Pressure ( in mb ) Visibility ( mi km ) Precip ( " mm )
12:27 am 00:27 Cloudy with Mist and Fog 64 17.8 63 17.2 96 96 W 3 6 30 1016 2.5 4.02336 0 0
12:40 am 00:40 Cloudy with Light Drizzle 64 17.8 63 17.2 96 96 W 5 7 30 1016 1.75 2.816352 0.001 0.001
12:52 am 00:52 Cloudy with Light Drizzle 64 17.8 64 17.8 100 100 NW 3 6 29.97 1015 1.75 2.816352 0.001 0.001
1:17 am 01:17 Cloudy with Mist and Fog 64 17.8 64 17.8 100 100 NNW 5 7 30 1016 2.5 4.02336 0.001 0.001
1:28 am 01:28 Cloudy with Mist and Fog 64 17.8 64 17.8 100 100 NNW 6 9 30 1016 2.5 4.02336 0.001 0.001
1:46 am 01:46 Cloudy with Light Drizzle 63 17 63 17 100 100 NW 6 9 29.97 1015 1.75 2.816352 0.001 0.001
1:52 am 01:52 Cloudy with Light Drizzle 63 17.2 63 17.2 100 100 NW 5 7 29.97 1015 1.75 2.816352 0.001 0.001
2:37 am 02:37 Cloudy with Mist and Fog 63 17.2 63 17.2 100 100 WNW 8 13 29.97 1015 3 4.828032 0.001 0.001
2:52 am 02:52 Cloudy with Mist and Fog 63 17.2 63 17.2 100 100 W 5 7 29.97 1015 4 6.437376 0.001 0.001
3:47 am 03:47 Cloudy 63 17 63 17 100 100 Calm 29.97 1015 7 11.265408 0.001 0.001
3:52 am 03:52 Cloudy 63 17.2 63 17.2 100 100 Calm 29.94 1014 7 11.265408 0.001 0.001
4:52 am 04:52 Cloudy 63 17.2 63 17.2 100 100 WNW 6 9 29.94 1014 10 16.09344 0 0
5:47 am 05:47 Cloudy 63 17 61 16 94 94 WNW 5 7 29.97 1015 10 16.09344 0.001 0.001
5:52 am 05:52 Cloudy 63 17.2 61 16.1 93 93 NW 7 11 29.94 1014 10 16.09344 0.001 0.001
6:52 am 06:52 Cloudy 63 17.2 61 16.1 93 93 NNW 6 9 29.94 1014 10 16.09344 0 0
7:44 am 07:44 Cloudy 63 17.2 61 16.1 93 93 Calm 29.97 1015 10 16.09344 0 0
7:52 am 07:52 Cloudy 63 17.2 61 16.1 93 93 WNW 3 6 29.97 1015 10 16.09344 0 0
8:52 am 08:52 Cloudy 65 18.3 61 16.1 87 87 W 6 9 29.97 1015 10 16.09344 0 0
9:52 am 09:52 Cloudy 66 18.9 62 16.7 87 87 SSW 5 7 29.97 1015 10 16.09344 0 0
10:52 am 10:52 Mostly Cloudy 70 21.1 62 16.7 76 76 W 6 9 29.97 1015 10 16.09344 0 0
11:52 am 11:52 Mostly Cloudy 73 22.8 62 16.7 69 69 WSW 8 13 29.97 1015 10 16.09344 0 0
12:52 pm 12:52 Mostly Cloudy 74 23.3 61 16.1 64 64 N 7 11 29.97 1015 10 16.09344 0 0
1:52 pm 13:52 Mostly Cloudy 76 24.4 60 15.6 58 58 W 9 15 29.94 1014 10 16.09344 0 0
2:52 pm 14:52 Mostly Cloudy 79 26.1 60 15.6 52 52 W 12 19 29.94 1014 10 16.09344 0 0
3:52 pm 15:52 Mostly Cloudy 79 26.1 60 15.6 52 52 W 10 17 29.94 1014 10 16.09344 0 0
4:52 pm 16:52 Mostly Cloudy 78 25.6 61 16.1 56 56 SW 8 13 29.91 1013 10 16.09344 0 0
5:21 pm 17:21 Partly Cloudy 80 26.7 58 14.4 47 47 NW 14 22 29.94 1014 10 16.09344 0 0
5:52 pm 17:52 Mostly Sunny 79 26.1 56 13.3 45 45 WNW 13 20 29.94 1014 10 16.09344 0 0
6:52 pm 18:52 Mostly Sunny 78 25.6 55 12.8 45 45 WNW 8 13 29.94 1014 10 16.09344 0 0
7:52 pm 19:52 Mostly Clear 76 24.4 55 12.8 48 48 W 6 9 29.97 1015 10 16.09344 0 0
8:52 pm 20:52 Clear 71 21.7 56 13.3 59 59 S 7 11 29.97 1015 10 16.09344 0 0
9:52 pm 21:52 Clear 70 21.1 59 15 68 68 SSW 3 6 30 1016 10 16.09344 0 0
10:52 pm 22:52 Clear 67 19.4 59 15 76 76 S 7 11 30 1016 10 16.09344 0 0
11:52 pm 23:52 Clear 67 19.4 58 14.4 73 73 SW 3 6 30 1016 10 16.09344 0 0

Powered by AerisWeather